Tracking 20942 objects as of 13-Jul-2020
HD Live streaming from Space Station
objects crossing your sky now

COSMOS 2222

Track COSMOS 2222 now!
COSMOS 2222 is classified as:


NORAD ID: 22238
Int'l Code: 1992-081A
Perigee: 969.7 km
Apogee: 39,347.3 km
Inclination: 63.7 °
Period: 716.7 minutes
Semi major axis: 26529 km
RCS: 13.6381 m2 (large)
Launch date: November 25, 1992
Source: Commonwealth of Independent States (former USSR) (CIS)
Launch site: PLESETSK MISSILE AND SPACE COMPLEX (PKMTR)
aabbcc
Your satellite tracking list
Your tracking list is empty




NASA's NSSDC Master Catalog

Two Line Element Set (TLE):
1 22238U 92081A   20194.16401844 -.00001212 +00000-0 -33636-1 0  9991
2 22238 063.6596 039.4267 7232999 200.5205 100.4467 02.00913330202423
Source of the keplerian elements: AFSPC